Morelia, Mexico

5:55 PM CST on March 30, 2017 (GMT -0600)
Gen Francisco J Mujica International

Weather History for MMMM - October, 2011

Change the Weather History Date:

Friday, October 7, 2011

  Actual Average Record
Temperature  
Mean Temperature 68 °F -  
Max Temperature 78 °F 76 °F 88 °F (2015)
Min Temperature 59 °F 51 °F 39 °F (2012)
Cooling Degree Days 4    
Growing Degree Days 18 (Base 50)    
Moisture  
Dew Point 58 °F    
Average Humidity 76    
Maximum Humidity 96    
Minimum Humidity 44    
Precipitation  
Precipitation 0.20 in 0.06 in - ()
Sea Level Pressure  
Sea Level Pressure 29.99 in    
Wind  
Wind Speed 2 mph ()    
Max Wind Speed 18 mph    
Max Gust Speed -    
Visibility 6.3 miles    
Events Rain    
Averages and records for this station are not official NWS values.
T = Trace of Precipitation, MM = Missing Value Source: Averaged Metar Reports

Daily Weather History Graph

Daily Weather History Graph

Search for Another Location

Airport or City:

Trip Planner

Search our weather history database for the weather conditions in past years. The results will help you decide how hot, cold, wet, or windy it might be!

Date:

Astronomy

Oct. 07, 2011 Rise Set
Actual Time 7:36 AM CDT 7:27 PM CDT
Civil Twilight 7:14 AM CDT 7:49 PM CDT
Nautical Twilight 6:48 AM CDT 8:14 PM CDT
Astronomical Twilight 6:23 AM CDT 8:40 PM CDT
Moon 4:46 PM CDT (10/7) 3:57 AM CDT (10/7)
Length of Visible Light 12h 34m
Length of Day
11h 50m
Waxing Gibbous, 83% of the Moon is Illuminated
Oct 7
Waxing Gibbous
Oct 11
Full
Oct 19
Last Quarter
Oct 26
New
Nov 2
First Quarter

Hourly Weather History & Observations

Time (CDT) Temp. Dew Point Humidity Pressure Visibility Wind Dir Wind Speed Gust Speed Precip Events Conditions
12:45 AM 66.2 °F 57.2 °F 73% 29.69 in 7.0 mi Calm Calm - N/A   Scattered Clouds
12:50 AM 65 °F 64 °F 96% 29.75 in 5 mi North 2.2 mph - -   Partly Cloudy
1:41 AM 64.4 °F 57.2 °F 77% 30.19 in 7.0 mi Calm Calm - N/A   Scattered Clouds
2:41 AM 64.4 °F 57.2 °F 77% 30.18 in 7.0 mi Calm Calm - N/A   Scattered Clouds
3:43 AM 62.6 °F 57.2 °F 82% 29.64 in 7.0 mi Calm Calm - N/A   Scattered Clouds
3:55 AM 63 °F 60 °F 87% 29.78 in 5 mi SSW 2.2 mph - -   Partly Cloudy
4:41 AM 62.6 °F 57.2 °F 82% 30.17 in 7.0 mi Calm Calm - N/A   Partly Cloudy
5:43 AM 60.8 °F 57.2 °F 88% 30.17 in 7.0 mi Calm Calm - N/A   Scattered Clouds
6:47 AM 60.8 °F 55.4 °F 82% 29.76 in 7.0 mi Calm Calm - N/A   Mostly Cloudy
6:55 AM 60 °F 59 °F 94% 29.81 in 6 mi South 2.2 mph - -   Partly Cloudy
7:49 AM 60.8 °F 55.4 °F 82% 30.19 in 6.0 mi Calm Calm - N/A   Mostly Cloudy
8:45 AM 60.8 °F 59.0 °F 94% 30.20 in 6.0 mi Calm Calm - N/A   Mostly Cloudy
9:48 AM 62.6 °F 60.8 °F 94% 29.81 in 3.0 mi Calm Calm - N/A   Mostly Cloudy
9:55 AM 66 °F 61 °F 79% 29.86 in 6 mi SSE 2.2 mph - -   Partly Cloudy
10:47 AM 69.8 °F 59.0 °F 68% 30.23 in 4.0 mi Calm Calm - N/A   Mostly Cloudy
11:48 AM 73.4 °F 57.2 °F 57% 30.22 in 6.0 mi Calm Calm - N/A   Mostly Cloudy
12:49 PM 75.2 °F 57.2 °F 53% 29.74 in 6.0 mi Calm Calm - N/A   Mostly Cloudy
12:55 PM 77 °F 59 °F 44% 29.85 in 7 mi ENE 2.2 mph - -   Partly Cloudy
1:47 PM 78.8 °F 57.2 °F 47% 30.15 in 7.0 mi Calm Calm - N/A   Mostly Cloudy
2:48 PM 77.0 °F 57.2 °F 50% 30.12 in 7.0 mi SSW 18.4 mph - N/A   Mostly Cloudy
3:48 PM 75.2 °F 59.0 °F 57% 29.65 in 7.0 mi SW 8.1 mph - N/A   Mostly Cloudy
4:48 PM 71.6 °F 59.0 °F 64% 30.10 in 7.0 mi Calm Calm - N/A   Overcast
5:45 PM 69.8 °F 59.0 °F 68% 30.09 in 7.0 mi WSW 5.8 mph - N/A   Overcast
6:44 PM 68.0 °F 57.2 °F 68% 29.73 in 7.0 mi SSW 15.0 mph - N/A   Overcast
7:46 PM 66.2 °F 55.4 °F 68% 30.17 in 7.0 mi SE 4.6 mph - N/A   Overcast
8:47 PM 60.8 °F 55.4 °F 82% 30.20 in 7.0 mi Calm Calm - N/A Rain Light Rain
9:50 PM 60 °F 58 °F 90% 29.83 in 5 mi SW 2.2 mph - - Rain Light Rain
9:53 PM 59.0 °F 57.2 °F 94% 29.84 in 6.0 mi WNW 5.8 mph - N/A Rain Light Rain
10:45 PM 59.0 °F 57.2 °F 94% 30.24 in 6.0 mi WNW 6.9 mph - N/A   Overcast
11:43 PM 59.0 °F 57.2 °F 94% 30.24 in 6.0 mi Calm Calm - N/A   Overcast